Regional Weather Roundup
Issued by NWS

Home | Current Version | Previous Version | Graphics & Text | Print | Product List | Glossary On
Versions: 1 2 3 4 5 6 7 8 9 10 11 12 13 14 15 16 17 18 19 20 21 22 23 24 25 26 27 28 29 30 31 32 33 34 35 36 37 38 39 40 41 42 43 44 45 46 47 48 49
000
ASUS45 KCYS 260010
RWRWY

WYOMING REGIONAL WEATHER ROUNDUP
NATIONAL WEATHER SERVICE CHEYENNE WY
500 PM MST SUN JAN 25 2015

NOTE:  "FAIR" INDICATES FEW OR NO CLOUDS BELOW 12,000 FEET
WITH NO SIGNIFICANT WEATHER AND/OR OBSTRUCTIONS TO VISIBILITY.

WYZ001-260100-
YELLOWSTONE NATIONAL PARK

CITY           SKY/WX    TMP DP  RH WIND       PRES   REMARKS
LK YELLOWSTONE   N/A     31  26  82 CALM      30.44R
6HR MIN TEMP:  28; 6HR MAX TEMP:  33;

W YELLOWSTONE  NOT AVBL

$$
WYZ002>013-054>058-071-098>099-260100-
NORTHERN WYOMING

CITY           SKY/WX    TMP DP  RH WIND       PRES   REMARKS
JACKSON        CLEAR     32  28  86 CALM      30.41R
CODY           FAIR      54  25  32 W14G22    30.14R
GREYBULL       FAIR      32  26  78 NW5       30.15R WCI  27
6HR MIN TEMP:  26; 6HR MAX TEMP:  38;

WORLAND        FAIR      27  23  85 S5        30.14R WCI  22
6HR MIN TEMP:  23; 6HR MAX TEMP:  34;

SHERIDAN       FAIR      46  30  53 N9        30.03R
6HR MIN TEMP:  42; 6HR MAX TEMP:  55;

BUFFALO          N/A     49  30  48 CALM      30.06R
6HR MIN TEMP:  45; 6HR MAX TEMP:  57;

GILLETTE       FAIR      43  32  65 W10       30.02S
6HR MIN TEMP:  43; 6HR MAX TEMP:  53;

HULETT           N/A    N/A N/A N/A MISG        N/A
NEWCASTLE      FAIR      43  32  65 NW5       30.02F

$$
WYZ014>020-022>026-101>103-260100-
CENTRAL WYOMING

CITY           SKY/WX    TMP DP  RH WIND       PRES   REMARKS
BIG PINEY      FAIR      39  28  64 NE8       30.35R WCI  33
6HR MIN TEMP:  30; 6HR MAX TEMP:  46;

PINEDALE       FAIR      36  30  80 W23G29    30.32S WCI  24
DUBOIS         FAIR      39  25  56 NW26      30.28S WCI  28
LANDER         FAIR      45  28  51 CALM      30.17R
6HR MIN TEMP:  37; 6HR MAX TEMP:  48;

RIVERTON       FAIR      40  28  62 NE6       30.18R
6HR MIN TEMP:  33; 6HR MAX TEMP:  47;

CASPER         FAIR      45  29  53 SW18      30.13R
6HR MIN TEMP:  43; 6HR MAX TEMP:  48;

DOUGLAS        FAIR      47  29  49 NW13      30.11R
6HR MIN TEMP:  42; 6HR MAX TEMP:  56;


$$
WYZ021-027>030-104>119-260100-
SOUTHERN WYOMING

CITY           SKY/WX    TMP DP  RH WIND       PRES   REMARKS
EVANSTON       FAIR      45  31  58 SW3       30.42R
6HR MIN TEMP:  37; 6HR MAX TEMP:  46;

KEMMERER       FAIR      36  32  87 N12       30.43R WCI  27
FORT BRIDGER   FAIR      46  32  58 NW9       30.43R
ROCK SPRINGS   FAIR      44  27  51 W22G28    30.33R
6HR MIN TEMP:  39; 6HR MAX TEMP:  47;

DIXON          FAIR      40  29  66 CALM      30.38R
RAWLINS        FAIR      40  28  62 W16       30.26S WCI  31
6HR MIN TEMP:  37; 6HR MAX TEMP:  42;

SARATOGA       FAIR      41  28  60 NW3       30.30S
LARAMIE        FAIR      40  25  55 W10       30.20R WCI  33
6HR MIN TEMP:  40; 6HR MAX TEMP:  46;

CHEYENNE       FAIR      46  27  47 NW14      30.14R
6HR MIN TEMP:  46; 6HR MAX TEMP:  52;

TORRINGTON     FAIR      51  31  46 W13       30.07R
6HR MIN TEMP:  45; 6HR MAX TEMP:  58;

PINE BLUFFS    FAIR      46  30  53 NW17G26   30.12R

$$


USA.gov is the U.S. government's official web portal to all federal, state and local government web resources and services.